"Timestamp","TZ","WindDir_Mean (deg)","WindSpd_Mean (km/h)","WindSpd_Min (km/h)","WindSpd_Max (km/h)","Temp_Mean (deg)","RH_Mean (%)","MSLP_Mean (hPa)","Rain_Acc (mm)","Rain_Intensity (mm/h)","Hail_Acc (hits/cm2)","Hail_Intensity (hits/cm2hr)","Solar_Mean (W/m2)"
2022/05/25 00:00:00.007,n,220,3.96,2.52,5.76,16.200002,82.4,1022.42,0,0,0,0,0.026131
2022/05/25 00:01:00.000,n,194,6.84,5.04,10.08,16.200002,82.2,1022.42,0,0,0,0,0.024376
2022/05/25 00:02:00.000,n,220,5.04,5.04,5.4,16.200002,82.1,1022.42,0,0,0,0,0.023499
2022/05/25 00:03:00.000,n,220,2.16,1.44,4.68,16.200002,82.1,1022.42,0,0,0,0,0.02697
2022/05/25 00:04:00.007,n,273,2.52,0.72,3.6,16.200002,82.1,1022.42,0,0,0,0,0.02697
2022/05/25 00:05:00.004,n,42,0.72,0,1.08,16.200002,82,1022.32,0,0,0,0,0.027847
2022/05/25 00:06:00.000,n,234,1.44,0.72,1.8,16.200002,82.1,1022.32,0,0,0,0,0.026131
2022/05/25 00:07:00.000,n,184,2.16,1.08,6.48,16.200002,82,1022.32,0,0,0,0,0.026131
2022/05/25 00:08:00.011,n,117,1.8,1.08,2.52,16.200002,82.1,1022.32,0,0,0,0,0.024376
2022/05/25 00:09:00.008,n,240,2.16,1.8,2.88,16.200002,82,1022.32,0,0,0,0,0.022621
2022/05/25 00:10:00.000,n,154,1.8,1.44,2.52,16.200002,81.9,1022.32,0,0,0,0,0.025253
2022/05/25 00:11:00.004,n,185,2.88,0.72,5.76,16.200002,81.9,1022.32,0,0,0,0,0.031357
2022/05/25 00:12:00.002,n,317,1.08,0.72,1.08,16.200002,81.9,1022.32,0,0,0,0,0.026131
2022/05/25 00:13:00.000,n,195,4.32,3.24,5.4,16.200002,81.9,1022.32,0,0,0,0,0.027847
2022/05/25 00:14:00.000,n,233,0.72,0.36,1.08,16.200002,81.8,1022.22,0,0,0,0,0.027847
2022/05/25 00:15:00.000,n,160,6.84,3.24,11.88,16.200002,81.9,1022.22,0,0,0,0,0.025253
2022/05/25 00:16:00.007,n,178,7.56,4.68,8.64,16.1,81.9,1022.22,0,0,0,0,0.021782
2022/05/25 00:17:00.005,n,112,2.52,1.44,3.6,16.1,81.9,1022.22,0,0,0,0,0.023499
2022/05/25 00:18:00.003,n,159,4.68,2.16,8.28,16.1,81.9,1022.22,0,0,0,0,0.021782
2022/05/25 00:19:00.000,n,159,6.84,6.12,7.56,16.1,81.9,1022.22,0,0,0,0,0.025253
2022/05/25 00:20:00.000,n,158,2.16,1.44,5.04,16.1,81.8,1022.22,0,0,0,0,0.024376
2022/05/25 00:21:00.000,n,273,1.8,1.44,2.16,16.1,82.1,1022.22,0,0,0,0,0.020905
2022/05/25 00:22:00.000,n,97,1.8,0,3.24,16.1,81.9,1022.22,0,0,0,0,0.022621
2022/05/25 00:23:00.005,n,189,2.52,0.36,6.48,16.1,82,1022.12,0,0,0,0,0.020027
2022/05/25 00:24:00.003,n,193,2.88,1.08,6.12,16.1,82,1022.12,0,0,0,0,0.021782
2022/05/25 00:25:00.000,n,149,1.44,0.36,3.96,16.1,82.3,1022.12,0,0,0,0,0.02697
2022/05/25 00:26:00.014,n,109,2.16,0.72,3.24,16.1,82.1,1022.12,0,0,0,0,0.022621
2022/05/25 00:27:00.011,n,152,4.32,1.8,8.28,16.1,81.9,1022.22,0,0,0,0,0.023499
2022/05/25 00:28:00.000,n,278,2.52,2.16,2.52,16.1,82.1,1022.22,0,0,0,0,0.022621
2022/05/25 00:29:00.000,n,124,1.8,1.08,2.88,16.1,82,1022.22,0,0,0,0,0.022621
2022/05/25 00:30:00.000,n,176,5.76,4.68,7.2,16.1,81.9,1022.22,0,0,0,0,0.025253
2022/05/25 00:31:00.000,n,170,4.68,2.52,9.36,16.1,81.9,1022.22,0,0,0,0,0.024376
2022/05/25 00:32:00.005,n,146,4.68,3.96,4.68,16.1,81.8,1022.22,0,0,0,0,0.024376
2022/05/25 00:33:00.001,n,183,5.4,2.16,10.08,16,81.9,1022.22,0,0,0,0,0.026093
2022/05/25 00:34:00.000,n,178,4.32,3.24,5.4,16,81.9,1022.22,0,0,0,0,0.028725
2022/05/25 00:35:00.011,n,206,3.6,2.88,4.32,16,81.9,1022.22,0,0,0,0,0.026093
2022/05/25 00:36:00.008,n,204,3.96,2.52,5.04,16,81.9,1022.22,0,0,0,0,0.029564
2022/05/25 00:37:00.000,n,226,2.88,2.16,3.6,16,81.9,1022.22,0,0,0,0,0.029564
2022/05/25 00:38:00.000,n,163,1.44,0.36,4.32,16,81.9,1022.22,0,0,0,0,0.023499
2022/05/25 00:39:00.002,n,245,2.52,1.44,7.92,16,82,1022.22,0,0,0,0,0.028725
2022/05/25 00:40:00.000,n,153,6.12,2.52,8.28,16,82.1,1022.12,0,0,0,0,0.026093
2022/05/25 00:41:00.000,n,174,3.6,2.88,7.92,16,82,1022.12,0,0,0,0,0.030441
2022/05/25 00:42:00.010,n,213,1.8,0.36,3.24,16,82,1022.12,0,0,0,0,0.020866
2022/05/25 00:43:00.006,n,260,1.8,1.44,2.16,16,81.9,1022.12,0,0,0,0,0.028725
2022/05/25 00:44:00.003,n,288,4.32,3.6,5.04,16,82,1022.12,0,0,0,0,0.02697
2022/05/25 00:45:00.001,n,195,2.16,1.08,4.32,16,81.9,1022.12,0,0,0,0,0.027847
2022/05/25 00:46:00.000,n,229,2.88,2.52,2.88,16,81.9,1022.12,0,0,0,0,0.024376
2022/05/25 00:47:00.000,n,197,2.52,0.72,9,16,82,1022.12,0,0,0,0,0.025215
2022/05/25 00:48:00.004,n,240,2.52,1.44,3.6,16,82.1,1022.12,0,0,0,0,0.027847
2022/05/25 00:49:00.005,n,186,5.4,4.32,8.64,16,81.9,1022.12,0,0,0,0,0.025215
2022/05/25 00:50:00.000,n,272,2.52,2.16,3.24,16,82.1,1022.12,0,0,0,0,0.029564
2022/05/25 00:51:00.010,n,266,2.52,2.52,2.88,16,82,1022.12,0,0,0,0,0.031357
2022/05/25 00:52:00.008,n,214,2.16,1.44,2.52,16,82.2,1022.12,0,0,0,0,0.031357
2022/05/25 00:53:00.005,n,196,1.8,0.36,5.4,16.1,82.5,1022.12,0,0,0,0,0.033073
2022/05/25 00:54:00.002,n,286,4.68,4.32,6.12,16.1,82.3,1022.12,0,0,0,0,0.033073
2022/05/25 00:55:00.000,n,296,3.6,2.88,4.32,16.1,82.3,1022.12,0,0,0,0,0.031357
2022/05/25 00:56:00.000,n,192,2.16,1.08,5.04,16.1,82.3,1022.12,0,0,0,0,0.033073
2022/05/25 00:57:00.000,n,277,2.52,1.8,4.32,16.1,82.4,1022.12,0,0,0,0,0.03479
2022/05/25 00:58:00.007,n,167,5.4,3.24,8.64,16.1,82.1,1022.12,0,0,0,0,0.03479
2022/05/25 00:59:00.005,n,308,2.88,2.52,3.24,16.1,82.4,1022.02,0,0,0,0,0.031357
2022/05/25 01:00:00.001,n,262,2.16,1.08,2.88,16.1,82.2,1022.02,0,0,0,0,0.029564
2022/05/25 01:01:00.000,n,304,1.44,0.36,5.04,16.1,82.6,1022.02,0,0,0,0,0.033951
2022/05/25 01:02:00.012,n,229,2.52,1.8,3.6,16.1,82.3,1022.02,0,0,0,0,0.029564
2022/05/25 01:03:00.010,n,211,5.04,4.32,6.48,16.1,81.9,1022.02,0,0,0,0,0.031357
2022/05/25 01:04:00.000,n,185,2.16,0.72,2.52,16.1,81.9,1022.02,0,0,0,0,0.030441
2022/05/25 01:05:00.000,n,287,1.8,1.44,2.16,16,82,1022.02,0,0,0,0,0.0383
2022/05/25 01:06:00.000,n,187,2.88,1.8,4.68,16,82.1,1022.02,0,0,0,0,0.033073
2022/05/25 01:07:00.000,n,269,6.12,5.04,6.84,16,82.2,1022.02,0,0,0,0,0.028725
2022/05/25 01:08:00.000,n,256,2.52,1.8,3.6,16,82.1,1022.02,0,0,0,0,0.028725
2022/05/25 01:09:00.008,n,265,3.24,2.16,3.96,16,82,1022.02,0,0,0,0,0.030441
2022/05/25 01:10:00.005,n,66,2.52,1.8,3.24,16,82.7,1022.02,0,0,0,0,0.032196
2022/05/25 01:11:00.003,n,280,4.32,3.6,5.04,16.1,82.3,1021.92,0,0,0,0,0.028725
2022/05/25 01:12:00.000,n,175,3.6,3.24,3.96,16,82,1021.92,0,0,0,0,0.033951
2022/05/25 01:13:00.000,n,245,3.96,1.08,5.04,16,82.5,1021.92,0,0,0,0,0.029564
2022/05/25 01:14:00.000,n,264,2.88,2.52,4.68,16,82.3,1021.92,0,0,0,0,0.031357
2022/05/25 01:15:00.000,n,206,1.8,1.08,2.52,16,82.1,1021.92,0,0,0,0,0.030441
2022/05/25 01:16:00.005,n,9,1.44,0.36,2.88,16,82.3,1021.92,0,0,0,0,0.033951
2022/05/25 01:17:00.002,n,253,3.6,3.24,4.32,16,82.2,1021.92,0,0,0,0,0.031357
2022/05/25 01:18:00.002,n,176,3.24,2.52,7.92,16.1,82.1,1021.92,0,0,0,0,0.031357
2022/05/25 01:19:00.000,n,244,2.16,0.36,3.96,16,82,1021.82,0,0,0,0,0.028725
2022/05/25 01:20:00.013,n,226,1.08,0.72,1.08,16,82.1,1021.82,0,0,0,0,0.031357
2022/05/25 01:21:00.010,n,181,6.12,3.96,8.28,16,82.1,1021.82,0,0,0,0,0.033951
2022/05/25 01:22:00.000,n,182,5.4,3.6,7.56,16,81.9,1021.82,0,0,0,0,0.030441
2022/05/25 01:23:00.000,n,12,6.48,2.88,10.08,16,82.3,1021.82,0,0,0,0,0.033951
2022/05/25 01:24:00.000,n,209,2.88,1.44,5.04,16.1,82.2,1021.82,0,0,0,0,0.029564
2022/05/25 01:25:00.000,n,211,2.88,1.08,4.32,16.1,82.1,1021.82,0,0,0,0,0.035667
2022/05/25 01:26:00.000,n,282,2.88,2.52,2.88,16.1,82,1021.82,0,0,0,0,0.033951
2022/05/25 01:27:00.007,n,181,2.88,2.16,3.96,16.1,82,1021.82,0,0,0,0,0.035667
2022/05/25 01:28:00.003,n,273,3.24,2.52,3.6,16.1,82,1021.82,0,0,0,0,0.03479
2022/05/25 01:29:00.000,n,261,1.44,1.08,2.16,16.1,82.1,1021.82,0,0,0,0,0.033951
2022/05/25 01:30:00.014,n,57,0.72,0.36,1.44,16.1,82.2,1021.82,0,0,0,0,0.035667
2022/05/25 01:31:00.000,n,183,2.52,2.16,3.24,16.1,82,1021.82,0,0,0,0,0.035667
2022/05/25 01:32:00.000,n,228,2.88,2.16,3.6,16.1,81.8,1021.72,0,0,0,0,0.033073
2022/05/25 01:33:00.005,n,255,3.96,3.6,4.32,16.1,82.1,1021.72,0,0,0,0,0.0383
2022/05/25 01:34:00.002,n,200,2.52,2.52,2.88,16.1,81.9,1021.72,0,0,0,0,0.033073
2022/05/25 01:35:00.000,n,162,5.04,2.52,7.56,16,81.9,1021.72,0,0,0,0,0.035667
2022/05/25 01:36:00.000,n,183,1.44,1.44,2.16,16,81.9,1021.72,0,0,0,0,0.035667
2022/05/25 01:37:00.013,n,147,2.52,2.16,3.24,16,81.9,1021.72,0,0,0,0,0.033073
2022/05/25 01:38:00.009,n,220,2.16,1.44,2.52,16,82,1021.72,0,0,0,0,0.033951
2022/05/25 01:39:00.007,n,211,2.16,0.72,5.4,16,82.1,1021.72,0,0,0,0,0.036545
2022/05/25 01:40:00.000,n,287,3.24,2.88,3.6,16,82.3,1021.72,0,0,0,0,0.036545
2022/05/25 01:41:00.000,n,168,8.28,5.4,11.88,16,82,1021.62,0,0,0,0,0.033951
2022/05/25 01:42:00.000,n,27,3.96,1.44,9.36,16,82.4,1021.62,0,0,0,0,0.031357
2022/05/25 01:43:00.000,n,142,2.16,1.8,2.52,16,82.1,1021.62,0,0,0,0,0.032196
2022/05/25 01:44:00.000,n,314,6.12,5.04,6.84,16,82.3,1021.62,0,0,0,0,0.032196
2022/05/25 01:45:00.008,n,148,2.52,2.16,6.48,16,82.1,1021.62,0,0,0,0,0.031357
2022/05/25 01:46:00.005,n,198,3.96,3.24,4.68,16,82,1021.62,0,0,0,0,0.033951
2022/05/25 01:47:00.002,n,197,4.32,2.88,6.84,16,82.8,1021.62,0,0,0,0,0.032196
2022/05/25 01:48:00.000,n,226,2.52,1.8,2.88,16,82.4,1021.62,0,0,0,0,0.033951
2022/05/25 01:49:00.000,n,275,1.8,0.72,2.88,16,82.1,1021.62,0,0,0,0,0.033951
2022/05/25 01:50:00.000,n,225,1.8,0,5.4,16,82.1,1021.62,0,0,0,0,0.033073
2022/05/25 01:51:00.000,n,234,3.6,2.16,8.64,16,82.1,1021.62,0,0,0,0,0.035667
2022/05/25 01:52:00.005,n,200,1.44,0.36,4.32,15.9,82.1,1021.52,0,0,0,0,0.030441
2022/05/25 01:53:00.002,n,273,3.6,3.24,3.96,15.9,82.1,1021.52,0,0,0,0,0.033073
2022/05/25 01:54:00.000,n,229,2.16,1.8,3.96,15.9,82.1,1021.52,0,0,0,0,0.035667
2022/05/25 01:55:00.011,n,277,3.24,2.88,3.6,15.9,82.3,1021.52,0,0,0,0,0.035667
2022/05/25 01:56:00.009,n,277,2.88,2.16,4.32,15.9,82.4,1021.52,0,0,0,0,0.03479
2022/05/25 01:57:00.005,n,240,3.96,1.44,5.04,15.9,82.2,1021.52,0,0,0,0,0.032196
2022/05/25 01:58:00.000,n,242,4.68,3.24,5.76,15.9,82.4,1021.52,0,0,0,0,0.031357
2022/05/25 01:59:00.000,n,269,6.12,5.4,7.2,15.9,82.2,1021.52,0,0,0,0,0.030441
2022/05/25 02:00:00.000,n,285,4.68,3.96,5.4,15.9,82.2,1021.52,0,0,0,0,0.032196
2022/05/25 02:01:00.000,n,260,2.16,1.8,3.24,15.9,82.3,1021.52,0,0,0,0,0.030441
2022/05/25 02:02:00.000,n,254,3.96,1.08,4.32,15.9,82.3,1021.52,0,0,0,0,0.031357
2022/05/25 02:03:00.010,n,288,5.04,4.32,5.76,15.9,82.3,1021.52,0,0,0,0,0.032196
2022/05/25 02:04:00.009,n,271,6.12,5.76,7.2,15.9,82.3,1021.52,0,0,0,0,0.031357
2022/05/25 02:05:00.005,n,254,6.84,5.76,7.2,15.9,82.3,1021.52,0,0,0,0,0.028725
2022/05/25 02:06:00.003,n,262,5.4,4.32,6.48,15.8,82.2,1021.52,0,0,0,0,0.027847
2022/05/25 02:07:00.000,n,262,4.68,4.32,5.04,15.8,82.2,1021.52,0,0,0,0,0.032196
2022/05/25 02:08:00.000,n,260,3.24,2.88,3.6,15.8,82.3,1021.52,0,0,0,0,0.030441
2022/05/25 02:09:00.000,n,241,2.88,2.52,3.24,15.8,82.3,1021.62,0,0,0,0,0.026093
2022/05/25 02:10:00.000,n,195,3.96,2.88,4.32,15.8,82.3,1021.52,0,0,0,0,0.030441
2022/05/25 02:11:00.000,n,253,4.68,2.88,5.76,15.8,82.3,1021.52,0,0,0,0,0.035667
2022/05/25 02:12:00.006,n,269,4.68,3.96,5.04,15.8,82.3,1021.52,0,0,0,0,0.030441
2022/05/25 02:13:00.003,n,278,3.24,3.24,3.6,15.8,82.3,1021.52,0,0,0,0,0.033073
2022/05/25 02:14:00.000,n,232,2.52,2.16,3.24,15.8,82.5,1021.52,0,0,0,0,0.029564
2022/05/25 02:15:00.013,n,206,3.24,2.52,3.96,15.8,82.5,1021.52,0,0,0,0,0.027847
2022/05/25 02:16:00.000,n,219,3.24,2.16,3.96,15.8,82.4,1021.52,0,0,0,0,0.027847
2022/05/25 02:17:00.000,n,203,2.88,2.52,3.6,15.8,82.6,1021.52,0,0,0,0,0.030441
2022/05/25 02:18:00.000,n,280,5.04,4.68,5.4,15.8,82.4,1021.52,0,0,0,0,0.02697
2022/05/25 02:19:00.000,n,262,4.68,3.24,5.4,15.8,82.3,1021.52,0,0,0,0,0.028725
2022/05/25 02:20:00.007,n,195,3.24,2.16,5.4,15.8,82.3,1021.52,0,0,0,0,0.02697
2022/05/25 02:21:00.000,n,259,6.12,5.4,6.48,15.8,82.2,1021.52,0,0,0,0,0.02697
2022/05/25 02:22:00.008,n,235,1.44,1.08,4.32,15.8,82.2,1021.52,0,0,0,0,0.025215
2022/05/25 02:23:00.006,n,283,4.68,3.96,5.4,15.8,82.5,1021.52,0,0,0,0,0.027847
2022/05/25 02:24:00.004,n,230,2.52,1.8,2.88,15.8,82.2,1021.52,0,0,0,0,0.026093
2022/05/25 02:25:00.001,n,230,2.52,1.8,3.6,15.8,82.2,1021.52,0,0,0,0,0.028725
2022/05/25 02:26:00.000,n,193,3.24,2.16,3.96,15.8,82.1,1021.52,0,0,0,0,0.026093
2022/05/25 02:27:00.000,n,199,3.24,2.16,5.4,15.8,82.2,1021.52,0,0,0,0,0.02697
2022/05/25 02:28:00.000,n,103,1.08,0.72,1.44,15.8,82.2,1021.52,0,0,0,0,0.029564
2022/05/25 02:29:00.009,n,190,1.44,0.36,2.16,15.8,82.3,1021.52,0,0,0,0,0.026093
2022/05/25 02:30:00.007,n,179,6.12,3.96,8.64,15.8,82.2,1021.52,0,0,0,0,0.025215
2022/05/25 02:31:00.005,n,156,3.6,3.6,3.96,15.8,82.2,1021.52,0,0,0,0,0.025215
2022/05/25 02:32:00.001,n,158,3.24,2.88,3.6,15.9,82.1,1021.52,0,0,0,0,0.029564
2022/05/25 02:33:00.015,n,277,2.88,2.52,3.24,15.9,82.1,1021.52,0,0,0,0,0.026093
2022/05/25 02:34:00.000,n,182,2.52,1.44,3.96,15.9,82.1,1021.52,0,0,0,0,0.028725
2022/05/25 02:35:00.000,n,180,1.8,0.72,6.48,15.9,81.9,1021.42,0,0,0,0,0.030441
2022/05/25 02:36:00.000,n,185,4.32,2.16,8.64,15.9,81.9,1021.52,0,0,0,0,0.028725
2022/05/25 02:37:00.004,n,197,4.32,3.96,7.56,15.9,81.9,1021.42,0,0,0,0,0.028725
2022/05/25 02:38:00.002,n,156,5.4,4.32,10.8,15.9,81.8,1021.42,0,0,0,0,0.027847
2022/05/25 02:39:00.000,n,182,8.28,6.84,12.24,16,81.7,1021.42,0,0,0,0,0.02697
2022/05/25 02:40:00.008,n,143,1.8,0,4.68,16,81.7,1021.42,0,0,0,0,0.032196
2022/05/25 02:41:00.005,n,212,2.16,1.44,3.24,16,81.7,1021.42,0,0,0,0,0.030441
2022/05/25 02:42:00.003,n,179,0.72,0.72,1.08,16,81.6,1021.42,0,0,0,0,0.030441
2022/05/25 02:43:00.000,n,165,8.64,2.52,12.96,16,81.6,1021.42,0,0,0,0,0.030441
2022/05/25 02:44:00.000,n,214,5.4,5.04,5.76,16,81.4,1021.32,0,0,0,0,0.029564
2022/05/25 02:45:00.000,n,165,5.76,1.8,6.48,16,81.5,1021.32,0,0,0,0,0.029564
2022/05/25 02:46:00.000,n,148,1.8,0.72,6.48,16,81.5,1021.32,0,0,0,0,0.028725
2022/05/25 02:47:00.007,n,143,2.52,2.52,2.88,16.1,81.7,1021.32,0,0,0,0,0.031357
2022/05/25 02:48:00.004,n,171,3.24,1.44,6.84,16.1,81.3,1021.32,0,0,0,0,0.032196
2022/05/25 02:49:00.001,n,221,5.04,4.32,5.76,16,81.4,1021.32,0,0,0,0,0.03479
2022/05/25 02:50:00.000,n,148,5.76,3.24,6.84,16.1,81.7,1021.32,0,0,0,0,0.033951
2022/05/25 02:51:00.015,n,173,3.6,1.8,5.76,16.1,81.3,1021.32,0,0,0,0,0.031357
2022/05/25 02:52:00.000,n,5,2.88,1.08,6.84,16,81.4,1021.32,0,0,0,0,0.029564
2022/05/25 02:53:00.000,n,159,4.68,2.16,6.84,16,81.5,1021.42,0,0,0,0,0.032196
2022/05/25 02:54:00.000,n,171,11.52,7.2,13.32,16,81.4,1021.32,0,0,0,0,0.033073
2022/05/25 02:55:00.000,n,155,4.68,3.96,9,16,81.4,1021.32,0,0,0,0,0.032196
2022/05/25 02:56:00.008,n,159,2.16,1.44,5.4,16,81.4,1021.32,0,0,0,0,0.033951
2022/05/25 02:57:00.006,n,194,6.48,3.96,8.28,16,81.4,1021.32,0,0,0,0,0.030441
2022/05/25 02:58:00.003,n,95,1.44,0.72,5.04,15.9,81.6,1021.32,0,0,0,0,0.028725
2022/05/25 02:59:00.000,n,159,5.04,3.6,8.28,15.9,81.6,1021.32,0,0,0,0,0.027847
2022/05/25 03:00:00.014,n,157,2.52,1.08,5.76,15.9,81.6,1021.32,0,0,0,0,0.033951
2022/05/25 03:01:00.000,n,102,2.16,1.44,3.24,15.9,81.8,1021.32,0,0,0,0,0.028725
2022/05/25 03:02:00.000,n,212,3.96,3.24,5.4,15.9,81.7,1021.32,0,0,0,0,0.02697
2022/05/25 03:03:00.005,n,127,4.68,3.96,5.04,15.9,81.6,1021.32,0,0,0,0,0.030441
2022/05/25 03:04:00.003,n,130,3.24,0.36,6.84,15.9,81.6,1021.32,0,0,0,0,0.028725
2022/05/25 03:05:00.000,n,174,2.16,0.72,6.48,15.9,81.7,1021.32,0,0,0,0,0.031357
2022/05/25 03:06:00.000,n,185,7.2,3.96,13.32,15.9,81.7,1021.32,0,0,0,0,0.029564
2022/05/25 03:07:00.010,n,171,11.52,6.48,13.68,15.9,81.5,1021.32,0,0,0,0,0.029564
2022/05/25 03:08:00.007,n,168,6.84,4.32,11.52,15.9,81.4,1021.32,0,0,0,0,0.02697
2022/05/25 03:09:00.005,n,222,2.16,1.08,3.24,15.9,81.4,1021.32,0,0,0,0,0.029564
2022/05/25 03:10:00.000,n,211,5.4,4.32,9.72,15.9,81.8,1021.32,0,0,0,0,0.031357
2022/05/25 03:11:00.000,n,207,2.16,1.8,3.6,15.9,81.7,1021.22,0,0,0,0,0.032196
2022/05/25 03:12:00.000,n,324,3.24,1.8,7.2,15.9,82.5,1021.22,0,0,0,0,0.03479
2022/05/25 03:13:00.000,n,215,1.8,1.44,2.16,16,82.2,1021.22,0,0,0,0,0.030441
2022/05/25 03:14:00.007,n,196,4.68,3.6,7.56,16,81.9,1021.22,0,0,0,0,0.033073
2022/05/25 03:15:00.004,n,193,2.88,2.52,6.12,15.9,81.7,1021.22,0,0,0,0,0.031357
2022/05/25 03:16:00.000,n,338,1.44,0.72,5.76,15.9,81.9,1021.22,0,0,0,0,0.029564
2022/05/25 03:17:00.014,n,343,0.72,0.36,4.32,15.9,81.9,1021.22,0,0,0,0,0.032196
2022/05/25 03:18:00.010,n,235,2.88,0.36,5.76,15.9,82,1021.22,0,0,0,0,0.029564
2022/05/25 03:19:00.000,n,160,2.88,2.52,3.24,15.9,81.9,1021.22,0,0,0,0,0.027847
2022/05/25 03:20:00.000,n,160,3.24,2.16,6.84,15.8,81.8,1021.22,0,0,0,0,0.031357
2022/05/25 03:21:00.002,n,285,1.44,1.08,1.8,15.8,82.3,1021.22,0,0,0,0,0.032196
2022/05/25 03:22:00.000,n,272,3.24,2.52,3.6,15.8,82.1,1021.22,0,0,0,0,0.032196
2022/05/25 03:23:00.000,n,295,3.6,3.24,4.68,15.8,81.9,1021.32,0,0,0,0,0.030441
2022/05/25 03:24:00.009,n,269,4.32,3.6,5.04,15.8,81.9,1021.22,0,0,0,0,0.028725
2022/05/25 03:25:00.007,n,196,2.88,1.08,5.4,15.8,82.1,1021.32,0,0,0,0,0.029564
2022/05/25 03:26:00.005,n,150,1.8,0.36,3.96,15.8,82.1,1021.32,0,0,0,0,0.02697
2022/05/25 03:27:00.003,n,265,4.32,3.6,4.68,15.8,82.1,1021.32,0,0,0,0,0.027847
2022/05/25 03:28:00.000,n,270,6.12,5.4,6.12,15.7,81.9,1021.32,0,0,0,0,0.029564
2022/05/25 03:29:00.000,n,277,3.6,2.88,3.96,15.7,81.9,1021.32,0,0,0,0,0.025215
2022/05/25 03:30:00.000,n,310,1.08,0.36,1.8,15.7,82,1021.32,0,0,0,0,0.026093
2022/05/25 03:31:00.000,n,276,5.4,3.96,6.12,15.6,82,1021.32,0,0,0,0,0.024376
2022/05/25 03:32:00.005,n,206,2.16,1.08,4.32,15.6,82.1,1021.32,0,0,0,0,0.02697
2022/05/25 03:33:00.001,n,269,3.6,2.52,3.96,15.6,82.3,1021.32,0,0,0,0,0.023499
2022/05/25 03:34:00.000,n,105,2.16,1.44,2.52,15.7,82.4,1021.32,0,0,0,0,0.024376
2022/05/25 03:35:00.012,n,237,0.36,0,1.08,15.6,82.2,1021.32,0,0,0,0,0.031357
2022/05/25 03:36:00.010,n,289,3.6,2.88,4.68,15.6,82.2,1021.22,0,0,0,0,0.021744
2022/05/25 03:37:00.000,n,247,3.24,2.88,3.6,15.6,82.3,1021.32,0,0,0,0,0.025215
2022/05/25 03:38:00.000,n,165,7.92,5.04,10.8,15.6,82.3,1021.32,0,0,0,0,0.024376
2022/05/25 03:39:00.003,n,190,3.96,2.52,7.2,15.6,82.3,1021.32,0,0,0,0,0.023499
2022/05/25 03:40:00.000,n,244,2.88,2.52,2.88,15.6,82.3,1021.32,0,0,0,0,0.020866
2022/05/25 03:41:00.000,n,257,3.96,1.8,5.4,15.6,82.5,1021.32,0,0,0,0,0.027847
2022/05/25 03:42:00.000,n,165,1.8,1.08,6.12,15.6,82.4,1021.32,0,0,0,0,0.02697
2022/05/25 03:43:00.009,n,160,1.8,0.72,5.76,15.6,82.5,1021.22,0,0,0,0,0.026093
2022/05/25 03:44:00.013,n,213,2.52,2.16,5.4,15.6,82.5,1021.22,0,0,0,0,0.023499
2022/05/25 03:45:00.010,n,125,1.8,1.08,3.6,15.6,82.5,1021.22,0,0,0,0,0.025215
2022/05/25 03:46:00.000,n,164,3.6,2.88,7.92,15.6,82.6,1021.22,0,0,0,0,0.026093
2022/05/25 03:47:00.000,n,197,3.96,3.24,3.96,15.6,82.5,1021.22,0,0,0,0,0.025215
2022/05/25 03:48:00.000,n,222,3.96,2.88,5.04,15.6,82.8,1021.22,0,0,0,0,0.030441
2022/05/25 03:49:00.005,n,122,2.88,2.52,3.96,15.6,82.6,1021.22,0,0,0,0,0.026093
2022/05/25 03:50:00.004,n,232,5.4,4.68,6.48,15.6,82.5,1021.22,0,0,0,0,0.026093
2022/05/25 03:51:00.001,n,168,2.52,1.8,5.4,15.6,82.5,1021.22,0,0,0,0,0.026093
2022/05/25 03:52:00.000,n,247,2.52,0.72,3.96,15.7,82.5,1021.22,0,0,0,0,0.024376
2022/05/25 03:53:00.011,n,335,1.08,0.72,1.8,15.7,82.5,1021.22,0,0,0,0,0.026093
2022/05/25 03:54:00.009,n,267,2.52,2.16,3.24,15.7,82.7,1021.22,0,0,0,0,0.023499
2022/05/25 03:55:00.000,n,213,1.8,1.08,3.6,15.7,82.6,1021.22,0,0,0,0,0.024376
2022/05/25 03:56:00.000,n,272,5.4,4.68,5.76,15.7,82.5,1021.12,0,0,0,0,0.025215
2022/05/25 03:57:00.000,n,238,1.8,1.44,2.52,15.7,82.3,1021.12,0,0,0,0,0.024376
2022/05/25 03:58:00.005,n,151,7.56,4.68,9.72,15.7,82.1,1021.12,0,0,0,0,0.025215
2022/05/25 03:59:00.003,n,229,4.68,3.24,5.04,15.6,82.3,1021.12,0,0,0,0,0.023499
2022/05/25 04:00:00.001,n,169,5.04,2.88,6.84,15.6,82.2,1021.12,0,0,0,0,0.024376
2022/05/25 04:01:00.000,n,221,3.24,1.44,5.04,15.6,82.2,1021.12,0,0,0,0,0.023499
2022/05/25 04:02:00.013,n,200,3.24,2.16,6.48,15.6,82.1,1021.12,0,0,0,0,0.024376
2022/05/25 04:03:00.010,n,53,0.36,0.36,0.36,15.6,82.1,1021.12,0,0,0,0,0.02697
2022/05/25 04:04:00.000,n,280,3.6,2.88,4.32,15.6,82.5,1021.02,0,0,0,0,0.028725
2022/05/25 04:05:00.003,n,255,3.6,2.52,3.6,15.6,82.4,1021.12,0,0,0,0,0.02697
2022/05/25 04:06:00.000,n,247,2.52,1.8,3.24,15.6,82.3,1021.02,0,0,0,0,0.032196
2022/05/25 04:07:00.000,n,220,2.88,0.72,3.96,15.6,82.2,1021.02,0,0,0,0,0.02697
2022/05/25 04:08:00.000,n,219,3.24,2.88,3.6,15.6,82.2,1021.02,0,0,0,0,0.029564
2022/05/25 04:09:00.010,n,315,3.6,2.16,4.68,15.6,82.5,1021.02,0,0,0,0,0.027847
2022/05/25 04:10:00.007,n,228,5.04,4.68,5.04,15.6,82.4,1021.02,0,0,0,0,0.024376
2022/05/25 04:11:00.004,n,276,2.88,2.16,3.24,15.6,82.2,1021.02,0,0,0,0,0.025215
2022/05/25 04:12:00.001,n,254,2.88,2.52,3.24,15.6,82.7,1021.02,0,0,0,0,0.02697
2022/05/25 04:13:00.000,n,219,2.88,2.52,2.88,15.6,82.6,1021.02,0,0,0,0,0.025215
2022/05/25 04:14:00.000,n,152,1.8,0.72,6.12,15.6,82.4,1021.02,0,0,0,0,0.024376
2022/05/25 04:15:00.000,n,274,3.96,3.6,4.32,15.6,82.5,1021.02,0,0,0,0,0.02697
2022/05/25 04:16:00.006,n,238,2.88,2.52,3.24,15.6,82.4,1021.02,0,0,0,0,0.023499
2022/05/25 04:17:00.003,n,262,1.8,1.44,2.52,15.6,82.4,1021.02,0,0,0,0,0.027847
2022/05/25 04:18:00.001,n,184,5.04,3.6,7.92,15.6,82.3,1021.02,0,0,0,0,0.024376
2022/05/25 04:19:00.008,n,182,7.2,4.68,8.64,15.5,82.4,1021.12,0,0,0,0,0.028725
2022/05/25 04:20:00.006,n,250,0.36,0.36,0.72,15.5,82.4,1021.12,0,0,0,0,0.028725
2022/05/25 04:21:00.003,n,196,4.32,3.24,5.4,15.5,82.4,1021.12,0,0,0,0,0.026093
2022/05/25 04:22:00.000,n,203,3.24,2.52,4.32,15.5,82.4,1021.12,0,0,0,0,0.026093
2022/05/25 04:23:00.000,n,204,0.36,0,1.08,15.5,82.5,1021.12,0,0,0,0,0.024376
2022/05/25 04:24:00.000,n,176,6.12,3.96,9,15.5,82.6,1021.02,0,0,0,0,0.022621
2022/05/25 04:25:00.000,n,207,2.52,1.8,3.6,15.5,82.5,1021.02,0,0,0,0,0.025215
2022/05/25 04:26:00.006,n,264,2.52,2.52,2.88,15.5,82.7,1021.02,0,0,0,0,0.023499
2022/05/25 04:27:00.004,n,196,2.16,1.44,2.52,15.5,82.9,1021.02,0,0,0,0,0.020866
2022/05/25 04:28:00.000,n,228,2.88,1.8,3.6,15.5,82.9,1021.02,0,0,0,0,0.023499
2022/05/25 04:29:00.000,n,257,2.52,2.16,3.24,15.6,83,1021.02,0,0,0,0,0.022621
2022/05/25 04:30:00.013,n,165,4.68,2.52,6.84,15.6,82.7,1021.02,0,0,0,0,0.022621
2022/05/25 04:31:00.000,n,196,4.68,3.96,5.4,15.6,82.6,1021.02,0,0,0,0,0.021744
2022/05/25 04:32:00.000,n,195,3.6,2.52,4.68,15.5,82.6,1021.02,0,0,0,0,0.025215
2022/05/25 04:33:00.000,n,163,3.6,1.44,6.84,15.5,82.7,1021.02,0,0,0,0,0.019989
2022/05/25 04:34:00.000,n,218,2.88,2.52,3.6,15.5,82.7,1021.02,0,0,0,0,0.01915
2022/05/25 04:35:00.004,n,285,3.96,2.52,4.32,15.5,82.8,1021.02,0,0,0,0,0.020866
2022/05/25 04:36:00.002,n,173,7.56,2.88,10.8,15.5,82.7,1021.02,0,0,0,0,0.022621
2022/05/25 04:37:00.000,n,174,4.32,1.44,6.12,15.5,82.6,1021.02,0,0,0,0,0.02697
2022/05/25 04:38:00.012,n,246,2.88,2.16,3.6,15.5,82.6,1021.02,0,0,0,0,0.020866
2022/05/25 04:39:00.009,n,180,6.48,4.32,7.92,15.5,82.6,1021.02,0,0,0,0,0.021744
2022/05/25 04:40:00.000,n,280,3.96,3.24,4.68,15.5,82.7,1021.02,0,0,0,0,0.022621
2022/05/25 04:41:00.004,n,247,4.32,1.44,5.04,15.6,82.8,1021.02,0,0,0,0,0.020866
2022/05/25 04:42:00.001,n,230,4.32,1.8,7.2,15.6,82.7,1021.02,0,0,0,0,0.01915
2022/05/25 04:43:00.000,n,206,2.88,2.16,3.96,15.6,82.7,1021.02,0,0,0,0,0.020866
2022/05/25 04:44:00.000,n,227,2.52,2.16,3.6,15.5,82.6,1021.12,0,0,0,0,0.019989
2022/05/25 04:45:00.008,n,208,2.88,1.8,3.96,15.6,82.9,1021.12,0,0,0,0,0.022621
2022/05/25 04:46:00.005,n,279,2.88,2.88,3.24,15.6,82.8,1021.12,0,0,0,0,0.020866
2022/05/25 04:47:00.005,n,210,2.52,2.16,3.24,15.6,83.4,1021.12,0,0,0,0,0.025215
2022/05/25 04:48:00.003,n,273,2.88,2.52,3.24,15.6,83,1021.12,0,0,0,0,0.026093
2022/05/25 04:49:00.000,n,260,6.48,2.88,8.64,15.6,82.8,1021.12,0,0,0,0,0.022621
2022/05/25 04:50:00.000,n,241,3.24,1.08,4.32,15.6,82.7,1021.12,0,0,0,0,0.022621
2022/05/25 04:51:00.000,n,264,3.6,3.24,4.68,15.6,82.7,1021.12,0,0,0,0,0.025215
2022/05/25 04:52:00.000,n,273,3.96,3.6,3.96,15.6,82.7,1021.22,0,0,0,0,0.021744
2022/05/25 04:53:00.005,n,187,0.36,0,0.36,15.6,82.7,1021.22,0,0,0,0,0.019989
2022/05/25 04:54:00.002,n,282,3.96,3.24,4.68,15.6,82.9,1021.22,0,0,0,0,0.021744
2022/05/25 04:55:00.000,n,283,5.04,4.32,5.4,15.6,82.7,1021.22,0,0,0,0,0.019989
2022/05/25 04:56:00.014,n,214,3.6,2.16,4.32,15.6,82.7,1021.22,0,0,0,0,0.021744